Location: Marcé
(47.5801°N, 0.3280°W)
Time: 08:19:56
(UTC+01:00)

Vanguard 1 Rocket - Pass Details

Date: 02 December 2021
Orbit: 651 x 4224 km, 34.3° (Epoch: 23 January)

Event Time Altitude Azimuth Distance (km) Brightness Sun altitude
Exits shadow 07:05:07 - 259° (W) 5,284 10.7 -13.7°
Reaches altitude 10° 07:05:35 10° 258° (WSW) 5,202 10.7 -13.6°
Maximum altitude 07:21:49 53° 189° (S) 4,171 10.8 -11.1°
Drops below altitude 10° 07:46:07 10° 122° (ESE) 7,414 13.8 -7.3°
Sets 07:52:03 0° 118° (ESE) 8,341 15.1 -6.4°
